Preview of NWS' New Version of Forecast
This preview is not operational and should not be used for support decisions.

Regional Weather Roundup (RWR)

Issued by National Weather Service (NWS)

                            
000
ASUS42 KTBW 231817
RWRFL 
FLORIDA REGIONAL WEATHER ROUNDUP
NATIONAL WEATHER SERVICE TAMPA BAY RUSKIN FL
200 PM EDT SAT MAR 23 2019

NOTE: "FAIR" INDICATES FEW OR NO CLOUDS BELOW 12,000 FEET WITH NO
SIGNIFICANT WEATHER AND/OR OBSTRUCTIONS TO VISIBILITY.

FLZ001>010-012>015-112-114-115-231900-
PANHANDLE FLORIDA
  
CITY           SKY/WX    TMP DP  RH WIND       PRES   REMARKS
PENSACOLA      FAIR      73  36  25 SE10      30.24F                  
PENSACOLA NAS  FAIR      71  35  26 SE10      30.24F                  
MILTON NAS     FAIR      72  36  26 VRB3      30.23F                  
CRESTVIEW      FAIR      74  31  20 S6        30.24F                  
MARY ESTHER    MOSUNNY   71  44  38 S13       30.22F                  
PANAMA CITY    FAIR      75  35  23 MISG      30.21F                  
APALACHICOLA   FAIR      69  39  33 SE13      30.24F                  

STATION/POSITION SKY/WX   TEMP    WIND        PRES    WAVE   SWELL
                          AIR SEA DIR/SP/G            HT/PER HT/PER
                          (F)     (DEG/KT/KT) (MB)    (FT/S) (FT/S)
30.1N   87.6W                                 1024.7F   1
29.2N   88.2W                      60/  8/ 10 1024.5F   1
PANAMA CITY BEAC           67 65              1024.0F
TOWER C                    63     100/  9/  9 1024.4F

$$
FLZ011-016>038-118-127-128-134-139-239-231900-
NORTH FLORIDA
  
CITY           SKY/WX    TMP DP  RH WIND       PRES   REMARKS
MARIANNA       FAIR      72  34  24 VRB5      30.22F                  
TALLAHASSEE    FAIR      73  37  27 VRB3      30.22F                  
PERRY          FAIR      74  32  21 NE3       30.23F                  
LIVE OAK       SUNNY     73  32  21 NE6       30.22F                  
CROSS CITY     FAIR      74  33  22 N8        30.22F                  
LAKE CITY      FAIR      70  34  26 CALM      30.23F                  
GAINESVILLE    FAIR      77  35  21 S7        30.24F                  
WILLISTON        N/A    N/A N/A N/A MISG        N/A                   
PALATKA        FAIR     N/A N/A N/A E7        30.23F                  
MAYPORT NAS    FAIR      65  49  56 NE8       30.25F                  
JACKSONVILLE   FAIR      71  38  29 VRB7      30.23F                  
JAX NAS        FAIR      71  38  29 N9        30.24F                  
JAX CECIL      SUNNY    N/A N/A N/A CALM      30.23F                  
FERNANDINA BEA FAIR      67  44  43 E8        30.25F                  
ST AUGUSTINE   FAIR      66  49  54 NE13      30.25F                  
PALM COAST     SUNNY     72  43  35 NE9       30.23F                  

STATION/POSITION SKY/WX   TEMP    WIND        PRES    WAVE   SWELL
                          AIR SEA DIR/SP/G            HT/PER HT/PER
                          (F)     (DEG/KT/KT) (MB)    (FT/S) (FT/S)
SHELL POINT      NOT AVBL
KEATON BEACH               66     240/  9/ 10 1023.7F
CEDAR KEY                  67     170/  3/  4 1023.5F
FERNANDINA                 63 62              1025.1F
30.7N   81.3W                 63                N/A     2/ 4
MAYPORT                    61 63              1024.5F
31.4N   80.9W              62 62   60/ 14/ 16 1024.2R   3/ 5
ST AUGUSTINE               62 64   20/ 11/ 12 1024.3F

$$
FLZ040-043>046-052-053-057-058-063-144-231900-
INTERIOR CENTRAL FLORIDA
  
CITY           SKY/WX    TMP DP  RH WIND       PRES   REMARKS
OCALA          FAIR      73  34  23 VRB6      30.23F                  
LEESBURG       FAIR      74  33  22 SE8       30.23F                  
SANFORD        FAIR      75  38  26 VRB5      30.21F                  
ORLANDO EXEC   FAIR      76  37  24 SE6       30.21F                  
ORLANDO INTL   FAIR      75  37  25 E5        30.21F                  
KISSIMMEE      FAIR      74  39  28 CALM      30.22F                  
WINTER HAVEN   FAIR      75  39  27 CALM      30.22F                  
LAKELAND       SUNNY     73  43  33 E12       30.21F                  
SEBRING        FAIR      75  42  29 SE5       30.20F                  
OKEECHOBEE     FAIR      73  46  38 CALM      30.20F                  

$$
FLZ041-047-054-059-064-141-147-231900-
EAST CENTRAL FLORIDA
  
CITY           SKY/WX    TMP DP  RH WIND       PRES   REMARKS
ORMOND BEACH   SUNNY     68  41  37 NE9       30.24S                  
DAYTONA BEACH  FAIR      71  46  40 VRB6      30.23F                  
DELAND         FAIR      73  41  31 SW3       30.21F                  
NEW SMYRNA BEA SUNNY     72  45  37 N10       30.24F                  
TITUSVILLE     SUNNY     75  45  33 NE9       30.22F                  
PATRICK AFB    FAIR      73  46  37 NE5       30.21F                  
MELBOURNE      FAIR      75  44  33 VRB5      30.21F                  
VERO BEACH     FAIR      75  52  44 E7        30.21F                  
FT PIERCE      FAIR      75  49  39 SE8       30.20F                  
STUART         SUNNY     75  50  41 E9        30.22F                  

STATION/POSITION SKY/WX   TEMP    WIND        PRES    WAVE   SWELL
                          AIR SEA DIR/SP/G            HT/PER HT/PER
                          (F)     (DEG/KT/KT) (MB)    (FT/S) (FT/S)
28.5N   80.2W              66     330/ 12/ 14 1023.5F   3/11   2/11
28.9N   78.5W              71 74  320/  4/  6 1023.2F   4/ 7   3/ 7
TRIDENT PIER               71 67              1024.2F
28.4N   80.5W                 67                N/A     1/10
27.5N   80.2W                 70                N/A     2/ 6

$$
FLZ050-056-061-142-242-148-248-149-249-151-251-155-255-
160-260-231900-
WEST CENTRAL FLORIDA
  
CITY           SKY/WX    TMP DP  RH WIND       PRES   REMARKS
CRYSTAL RIVER  FAIR      75  32  20 E5        30.22F                  
INVERNESS      FAIR      73  37  27 NE5       30.22F                  
BROOKSVILLE    FAIR      77  37  23 VRB7      30.21F                  
CLEARWATER AIR FAIR      72  37  28 CALM      30.21F                  
ST PETE CLEARW FAIR      73  39  29 VRB5      30.21F                  
TAMPA INTL     FAIR      77  40  26 CALM      30.21F                  
TAMPA EXEC     FAIR      75  43  31 SE6       30.21F                  
PLANT CITY     FAIR      75  39  27 NE6       30.22F                  
PETER O KNIGHT CLOUDY    77  43  29 NE6       30.21F                  
ST PETERSBURG  FAIR      73  44  35 NE3       30.19F                  
SARASOTA       FAIR      76  41  28 NE9       30.18F                  
VENICE         FAIR      77  43  29 NE9       30.21F                  

STATION/POSITION SKY/WX   TEMP    WIND        PRES    WAVE   SWELL
                          AIR SEA DIR/SP/G            HT/PER HT/PER
                          (F)     (DEG/KT/KT) (MB)    (FT/S) (FT/S)
27.3N   84.2W                 72                N/A     2/ 5
CLEARWATER BEACH           67 67              1023.2F
MIDDLE TAMPA BAY           68                 1023.1F
VENICE                     72 71   30/  6/  8 1022.5F

$$
FLZ066-069-070-075>078-162-262-165-265-231900-
SOUTHWEST FLORIDA AND KEYS
  
CITY           SKY/WX    TMP DP  RH WIND       PRES   REMARKS
PUNTA GORDA    FAIR      74  43  32 NE7       30.22F                  
FT MYERS       FAIR      73  42  32 SE7       30.19F                  
SOUTHWEST INTL FAIR      75  48  38 SE8       30.20F                  
NAPLES         FAIR      72  54  53 SW12      30.20F                  
MARCO ISLAND   FAIR      73  49  42 VRB5      30.21F                  
IMMOKALEE      FAIR      77  46  33 VRB7      30.18F                  
MARATHON       FAIR      76  55  48 N8        30.18F                  
KEY WEST NAS   FAIR      76  52  43 N9        30.19F                  
KEY WEST INTL  FAIR      75  53  46 NE8       30.19F                  

STATION/POSITION SKY/WX   TEMP    WIND        PRES    WAVE   SWELL
                          AIR SEA DIR/SP/G            HT/PER HT/PER
                          (F)     (DEG/KT/KT) (MB)    (FT/S) (FT/S)
NAPLES                     69 71              1022.7F
26.0N   85.6W              70 79   50/  6/ 10 1022.8
DRY TORTUGAS               70      30/  8/ 10 1022.4F
SAND KEY                   69                 1022.3F
SOMBRERO KEY               69                 1021.5F
MOLASSES REEF              71 77   50/  8/ 11 1022.0F

$$
FLZ067-068-071>074-168-172>174-231900-
SOUTHEAST FLORIDA 
  
CITY           SKY/WX    TMP DP  RH WIND       PRES   REMARKS
W PALM BEACH   FAIR      74  54  49 NE9       30.20F                  
BOCA RATON     MOSUNNY   77  57  50 NE9       30.20F                  
FT LAUDER-EXEC FAIR      78  54  43 E9        30.19F                  
FT LAUDERDALE  FAIR      75  56  51 E5        30.18F                  
POMPANO BEACH  FAIR      76  55  48 VRB3      30.19F                  
PEMBROKE PINES FAIR      78  54  43 CALM      30.20F                  
OPA LOCKA      FAIR      78  55  44 VRB6      30.19F                  
MIAMI          FAIR      78  55  44 E8        30.18F                  
WEST KENDALL   FAIR      79  55  43 NE8       30.18F                  
HOMESTEAD      NOT AVBL                                               

STATION/POSITION SKY/WX   TEMP    WIND        PRES    WAVE   SWELL
                          AIR SEA DIR/SP/G            HT/PER HT/PER
                          (F)     (DEG/KT/KT) (MB)    (FT/S) (FT/S)
VIRGINIA KEY               73 75              1021.6F
LAKE WORTH                 70 75              1023.7F
FOWEY ROCKS                71 78  360/  8/ 10 1022.8F
SETTLEMENT POINT           72      50/  6/  7 1022.8F

$$